Regional Weather Roundup
Issued by NWS Newport/Morehead, NC

Current Version | Previous Version | Graphics & Text | Print | Product List | Glossary Off
Versions: 1 2 3 4 5 6 7 8 9 10 11 12 13 14 15 16 17 18 19 20 21 22 23 24 25 26 27 28 29 30 31 32 33 34 35 36 37 38 39 40 41 42 43 44 45 46 47 48 49 50
000 ASUS42 KMHX 290024 RWRMHX WEATHER ROUNDUP FOR EASTERN NORTH CAROLINA NATIONAL WEATHER SERVICE NEWPORT/MOREHEAD CITY NC 800 PM EDT THU MAY 28 2015 NOTE: "FAIR" INDICATES FEW OR NO CLOUDS BELOW 12,000 FEET WITH NO SIGNIFICANT WEATHER AND/OR OBSTRUCTIONS TO VISIBILITY NCZ015>017-031-032-045>047-102-103-290100- NORTH COAST CITY SKY/WX TMP DP RH WIND PRES REMARKS EDENTON CLEAR 77 65 67 S9 30.19R ELIZABETH CITY PTCLDY 77 64 64 S6 30.19S KITTY HAWK PTCLDY 74 63 66 S6 30.20R MANTEO PTCLDY 74 63 70 S8 30.21S $$ NCZ045>047-081-094-103-104-290100- CENTRAL COAST CITY SKY/WX TMP DP RH WIND PRES REMARKS FRISCO CLEAR 75 60 59 SE8 30.21S SWANQUARTER N/A 73 N/A N/A SE5 30.18S $$ NCZ095-097-098-100-101-290100- SOUTHERN COAST CITY SKY/WX TMP DP RH WIND PRES REMARKS BEAUFORT PTCLDY 73 63 70 SE6 30.20S CEDAR ISLAND N/A 73 N/A N/A SE7 30.24S JACKSONVILLE PTCLDY 74 62 66 S6 30.19R PINEY ISLAND CLEAR N/A N/A N/A S6 30.19S WILMINGTON PTCLDY 75 62 64 SE6 30.19R $$ NCZ011>013-027>030-043-044-078>080-089-090>093-098-290100- COASTAL PLAIN CITY SKY/WX TMP DP RH WIND PRES REMARKS AHOSKIE PTCLDY 77 68 75 CALM 30.18R CLINTON CLEAR 79 68 69 CALM 30.18R ELIZABETHTOWN CLEAR 78 65 62 CALM 30.19R GOLDSBORO PTCLDY 80 66 61 CALM 30.16R GREENVILLE PTCLDY 81 68 65 SE7 30.19R HAVELOCK PTCLDY 73 60 63 S7 30.21R KENANSVILLE CLEAR 77 63 61 CALM 30.20R KINSTON PTCLDY 79 64 61 S7 30.19R NEW BERN CLEAR 76 62 62 S8 30.20R RICHLANDS CLEAR 73 61 64 S6 30.20R ROCKY MOUNT PTCLDY 81 69 67 SE3 30.17R WASHINGTON CLEAR 76 65 67 SE6 30.20R WHITEVILLE CLEAR 77 63 60 S6 30.18S $$ AMZ130-135-150-152-154-156-158-170-250-252-270-ANZ085-086-088-633-658-670-290100- MARINE OBSERVATIONS STATION/POSITION TIME TEMP WIND PRES WAVE SWELL AIR SEA DIR/SP/G HT/PER HT/PER (UTC) (F) (DEG/KT/KT) (MB) (FT/S) (FT/S) CHESAPEAKE LIGHT 0000 68 170/ 23/ 24 1022.3 64 E VA BEACH 2350 68 65 140/ 4/ 4 1022.9 3/ 7 3/ 7 DUCK 0000 67 57 150/ 14/ 15 1021.6 2 E DUCK 0011 62 N/A 2/ 8 OREGON INLET 0000 73 79 130/ 6/ 9 1022.9 13E OREGON INLT 0000 74 N/A 3/ 8 HATTERAS CG 0000 75 77 130/ 6/ 10 1022.4 DIAMOND BUOY 2350 75 78 130/ 8/ 10 1023.1 3/ 8 3/ 8 CAPE LOOKOUT 0000 74 130/ 7/ 7 1022.3 BEAUFORT LAB 0000 74 76 160/ 6/ 9 1021.8 27 SE WRIGHTSVLE 0000 76 150/ 10/ 10 N/A 5 SE WRIGHTSVLE 2308 76 78 160/ 8/ 12 1022.2 225 S CAPE HAT 2350 74 74 70/ 14/ 16 1021.6 6/ 9 5/ 9 41 SE CHARLESTON 2350 76 79 90/ 8/ 12 1021.6 3/ 8 3/ 8 $$

USA.gov is the U.S. government's official web portal to all federal, state and local government web resources and services.